Regional Weather Roundup
Issued by NWS Boston, MA

Home | Current Version | Previous Version | Text Only | Print | Product List | Glossary On
Versions: 1 2 3 4 5 6 7 8 9 10 11 12 13 14 15 16 17 18 19 20 21 22 23 24 25 26 27
000
ASUS41 KBOX 251710
RWRBOX

REGIONAL WEATHER ROUNDUP
NATIONAL WEATHER SERVICE TAUNTON MA
100 PM EDT SAT OCT 25 2014

NOTE:  "FAIR" INDICATES FEW OR NO CLOUDS BELOW 12,000 FEET WITH NO
SIGNIFICANT WEATHER AND/OR OBSTRUCTIONS TO VISIBILITY.  THE FOLLOWING
OBSERVATION LOCATIONS DO NOT REPORT PRESENT WEATHER...PROVINCETOWN...
SMITHFIELD...BLOCK ISLAND...KEENE...AND OXFORD.

MAZALL-251800-
EASTERN MASSACHUSETTS

CITY           SKY/WX    TMP DP  RH WIND       PRES   REMARKS
BOSTON         SUNNY     62  41  46 W13       29.66F
BEVERLY        MOSUNNY   64  39  39 W12G18    29.64F
LAWRENCE       MOSUNNY   64  40  41 W9        29.67F
BEDFORD        SUNNY     63  42  46 VRB6      29.65F
BLUE HILL        N/A     62  41  46 W10       29.66F
NORWOOD        SUNNY     64  40  41 W10G18    29.67F
MARSHFIELD     NOT AVBL
PLYMOUTH       SUNNY     63  44  50 SW8       29.67F
TAUNTON        SUNNY     65  42  43 W8        29.68F
NEW BEDFORD    SUNNY     63  44  50 W8        29.68F
$$

MAZALL-251800-
CAPE COD AND THE ISLANDS

CITY           SKY/WX    TMP DP  RH WIND       PRES   REMARKS
FALMOUTH       SUNNY     63  46  55 SW9       29.69F
HYANNIS        SUNNY     63  47  55 SW12      29.67F
CHATHAM        SUNNY     61  48  62 SW9G18    29.69F
PROVINCETOWN   SUNNY     63   7  11 SW10G17   29.67F
NANTUCKET      SUNNY     61  49  64 SW17      29.70F
MARTHAS VNYRD  SUNNY     62  45  53 W9        29.70F
$$

MAZALL-251800-
CENTRAL AND WESTERN MASSACHUSETTS

CITY           SKY/WX    TMP DP  RH WIND       PRES   REMARKS
WORCESTER      SUNNY     57  37  47 W16G23    29.70F
FITCHBURG      SUNNY     63  40  42 NW10      29.69F
ORANGE         SUNNY     60  39  45 VRB7      29.70F
SPRINGFIELD    MOSUNNY   64  41  43 W8        29.70F
WESTFIELD      MOSUNNY   64  43  46 VRB5      29.71F
NORTH ADAMS    CLOUDY    55  44  66 CALM      29.71F
PITTSFIELD     PTSUNNY   55  44  66 W12       29.71F
$$

RIZALL-251800-
RHODE ISLAND

CITY           SKY/WX    TMP DP  RH WIND       PRES   REMARKS
PROVIDENCE     SUNNY     63  42  46 SW10      29.70F
NEWPORT        SUNNY     65  44  46 VRB7      29.70F
BLOCK ISLAND   SUNNY     61  43  51 W18       29.74F
SMITHFIELD     SUNNY     63  37  39 W10G17    29.69F
WESTERLY       SUNNY     62  44  51 SW10      29.73F
$$

CTZALL-251800-
CONNECTICUT

CITY           SKY/WX    TMP DP  RH WIND       PRES   REMARKS
BRADLEY INTL   PTSUNNY   67  43  41 NW15G23   29.71F
HARTFORD       SUNNY     64  43  46 VRB7G21   29.72F
BRIDGEPORT     SUNNY     62  45  53 SW12      29.75F
DANBURY        SUNNY     62  41  46 W10       29.76F
GROTON         SUNNY     62  45  53 SW12      29.72F
NEW HAVEN      MOSUNNY   62  46  55 SW9       29.75F
CHESTER        NOT AVBL
MERIDEN        SUNNY     63  40  42 VRB7      29.74F
WILLIMANTIC    SUNNY     62  40  44 W6        29.73F
OXFORD         SUNNY     59  41  51 NW12      29.75F
$$

MEZ002-015-021-024-NHZ003-005-008-011-012-014-VTZ005-008-251800-
NORTHERN NEW ENGLAND

CITY           SKY/WX    TMP DP  RH WIND       PRES   REMARKS
PORTLAND ME    MOSUNNY   63  42  46 SW6       29.62F
BANGOR ME      PTSUNNY   58  35  42 NW9       29.59F
CONCORD NH     SUNNY     63  37  38 W9        29.65F
MANCHESTER NH  MOSUNNY   64  36  35 W8        29.65F
NASHUA NH      SUNNY     64  35  34 W9        29.67F
PORTSMOUTH NH  MOSUNNY   64  40  41 W12       29.63F
JAFFREY NH     MOSUNNY   57  38  48 W12       29.70F
KEENE NH       SUNNY     59  37  44 W7        29.69F
BURLINGTON VT  CLOUDY    54  41  61 S9        29.65F
MT. WASHINGTON MOSUNNY   34  28  80 NW23        N/A  WCI  22
$$

NYZ052-076-251800-
EASTERN NEW YORK

CITY           SKY/WX    TMP DP  RH WIND       PRES   REMARKS
ALBANY         PTSUNNY   58  45  62 E3        29.72F
NEW YORK CITY  MOSUNNY   63  40  42 W9        29.77F
$$

ANZALL-251800-
MARINE OBSERVATIONS

STATION/POSITION TIME  TEMP    WIND        PRES    VSBY  WAVE
                       AIR SEA DIR/SP/G                  HT/PER
                 (UTC) (F)     (DEG/KT/KT) (MB)    (MI)  (FT/S)
BOSTON BUOY      NOT AVBL
BUZZARDS BAY     NOT AVBL
NANTUCKET SOUND  NOT AVBL
MASS BAY-STELLWA NOT AVBL
ISLE OF SHOALS   NOT AVBL
S OF BLOCK IS    NOT AVBL
$$

......................KEY.........................
  SKY/WX - SKY CONDITION/PRESENT WEATHER
  TMP    - TEMPERATURE IN FAHRENHEIT
  DWPT   - DEWPOINT IN FAHRENHEIT
  RH     - RELATIVE HUMIDITY IN PERCENT
  WIND   - DIRECTION AND SPEED IN MPH
  PRES   - MEAN SEA LEVEL PRESSURE IN INCHES OF HG
  WCI    - WIND CHILL INDEX
  VSB    - VISIBILITY IN MILES
  HX     - HEAT INDEX
  TC     - TEMPERATURE IN CELSIUS
  VRB    - VARIABLE WIND DIRECTION
  N/A    - NOT AVAILABLE



USA.gov is the U.S. government's official web portal to all federal, state and local government web resources and services.